Regional Weather Roundup
Issued by NWS

Home | Current Version | Previous Version | Text Only | Print | Product List | Glossary On
Versions: 1 2 3 4 5 6 7 8 9 10 11 12 13 14 15 16 17 18 19 20 21 22 23 24 25 26 27 28 29 30 31 32 33 34 35 36 37 38 39 40 41 42 43 44 45 46 47 48 49 50
000
ASUS43 KIND 230709
RWRIN

WEATHER ROUNDUP FOR INDIANA
NATIONAL WEATHER SERVICE INDIANAPOLIS IN
200 AM EST SUN NOV 23 2014

NOTE: "FAIR" INDICATES FEW OR NO CLOUDS BELOW 12,000 FEET WITH NO
SIGNIFICANT WEATHER AND/OR OBSTRUCTIONS TO VISIBILITY.

* - STATION DOES NOT REPORT WEATHER SUCH AS PRECIPITATION OR FOG.

+ - STATION NOT QUALITY CONTROLLED BY THE NATIONAL WEATHER SERVICE.
    USE DATA WITH CAUTION...ESPECIALLY DEWPOINT AND RELATIVE
    HUMIDITY OBSERVATIONS.

INZ001>003-010>013-019-020-230800-
NORTHWEST INDIANA

CITY           SKY/WX    TMP DP  RH WIND       PRES   REMARKS
GARY /AIRPORT/ CLOUDY    52  46  81 S8        29.87F
KNOX *+        CLOUDY    49  44  82 S12       29.90F
LA PORTE +     CLOUDY    50  47  88 S10G17    29.90F
MICHIGAN CITY+ CLOUDY    50  43  76 S13G20    29.88F
MONTICELLO +   RAIN      47  46  93 S8        29.92F
RENSSELAER +   LGT RAIN  48  46  93 S14       29.90F
VALPARAISO     CLOUDY    49  45  86 S13       29.89F

$$

LMZ046-743>745-230800-
SOUTHERN LAKE MICHIGAN

STATION/POSITION TIME  TEMP WIND        PRES
                       AIR  DIR/SP/G
                 (UTC) (F)  (DEG/KT/KT) (MB)
MICHIGAN CITY    0700   51  170/ 17/ 23   N/A

$$

INZ004-005-014>016-021>024-230800-
NORTH CENTRAL INDIANA

CITY           SKY/WX    TMP DP  RH WIND       PRES   REMARKS
GOSHEN         CLOUDY    48  44  86 S12       29.93S
LOGANSPORT +   RAIN      45  41  87 S12       29.94S
PERU/GRISSOM   LGT RAIN  47  47 100 S14       29.94F
ROCHESTER +    CLOUDY    48  45  87 S10       29.94F
SOUTH BEND     CLOUDY    51  45  79 SW15G28   29.91F
WARSAW +       RAIN      46  43  87 S8        29.93F

$$

INZ006>009-017-018-025>027-230800-
NORTHEAST INDIANA

CITY           SKY/WX    TMP DP  RH WIND       PRES   REMARKS
ANGOLA *+      CLOUDY    48  43  81 SW13      29.94S
AUBURN +       MOCLDY    48  41  76 S7        29.96S
FORT WAYNE     LGT RAIN  46  42  86 SW18      29.97F
HUNTINGTON +   LGT RAIN  46  43  91 S9        29.95F

$$

INZ028-029-035-036-043>045-051>053-230800-
WEST CENTRAL INDIANA

CITY           SKY/WX    TMP DP  RH WIND       PRES   REMARKS
GREENCASTLE +  CLOUDY    46  43  87 S6        29.95F
LAFAYETTE      LGT RAIN  47  45  93 S8        29.93F
TERRE HAUTE    CLOUDY    49  40  71 S8        29.94F

$$

INZ030>032-037>040-046>048-054>057-064-065-230800-
CENTRAL INDIANA

CITY           SKY/WX    TMP DP  RH WIND       PRES   REMARKS
CP ATTERBURY + CLOUDY    48  37  66 SE5       30.00F
FRANKFORT +    DRIZZLE   47  47 100 S8        29.95F
INDIANAPOLIS   CLOUDY    48  40  73 SE8       29.96F
-EAGLE CREEK   CLOUDY    46  44  93 CALM      29.96F
KOKOMO *+      CLOUDY    46  41  81 S9        29.96F
MARION +       LGT RAIN  45  40  84 S10       29.98F
MT COMFORT *+  CLOUDY    45  37  76 S8        30.00F
SHELBYVILLE    LGT RAIN  49  38  65 S6        30.00F
ZIONSVILLE +   LGT RAIN  47  42  81 S7        29.97F

$$

INZ033-034-041-042-049-050-058-059-230800-
EAST CENTRAL INDIANA

CITY           SKY/WX    TMP DP  RH WIND       PRES   REMARKS
MUNCIE         RAIN      48  42  80 SW14      30.00S

$$

INZ060-061-067>069-081>083-085>088-230800-
SOUTHWEST INDIANA

CITY           SKY/WX    TMP DP  RH WIND       PRES   REMARKS
EVANSVILLE     PTCLDY    50  35  56 SE5       29.98F
HUNTINGBURG *+ MOCLDY    54  39  58 S10       30.00S
WASHINGTON +   CLOUDY    53  40  62 S10       29.96F

$$

INZ062-063-066-070>080-084-089>092-230800-
SOUTH CENTRAL AND SOUTHEAST INDIANA

CITY           SKY/WX    TMP DP  RH WIND       PRES   REMARKS
BLOOMINGTON    CLOUDY    50  38  63 SE7       29.97F

$$



USA.gov is the U.S. government's official web portal to all federal, state and local government web resources and services.